Simultaneous Nadir Overpasses (SNOs) Predictions

Prediction of SNOs between GOES-15 and NPP Satellite Orbit:

Table of predicted SNOs for the next 14.0 days since TLE Epoch: 3/16/2024
Index Date Time (GOES-15) GOES-15 Lat,Lon NPP Lat,Lon Distance(km) Time Diff (sec)
1 03/16/2024 21:12:09 0.07, 61.16 -0.30, 62.92 199.67 80
2 03/18/2024 09:36:48 -0.08, 61.24 -0.87, 57.60 414.19 80
3 03/19/2024 09:15:24 -0.08, 61.24 0.15, 62.13 101.61 80
4 03/20/2024 21:37:14 0.09, 61.17 1.03, 56.85 491.61 80
5 03/21/2024 21:21:09 0.09, 61.17 0.06, 61.38 24.26 80
6 03/24/2024 09:24:23 -0.09, 61.25 -0.25, 60.60 74.18 80
7 03/25/2024 09:02:59 -0.09, 61.25 0.78, 65.12 441.41 80
8 03/26/2024 21:24:49 0.09, 61.18 0.38, 59.84 152.26 80
9 03/27/2024 21:08:44 0.09, 61.18 -0.59, 64.38 363.07 80
10 03/29/2024 09:30:42 -0.09, 61.27 -0.61, 59.07 251.86 80
